Regional Weather Roundup
Issued by NWS Newport/Morehead, NC

Current Version | Previous Version | Text Only | Print | Product List | Glossary Off
Versions: 1 2 3 4 5 6 7 8 9 10 11 12 13 14 15 16 17 18 19 20 21 22 23 24 25 26 27 28 29 30 31 32 33 34 35 36 37 38 39 40 41 42 43 44 45 46 47 48 49 50
000 ASUS42 KMHX 210825 RWRMHX WEATHER ROUNDUP FOR EASTERN NORTH CAROLINA NATIONAL WEATHER SERVICE NEWPORT/MOREHEAD CITY NC 400 AM EDT SAT OCT 21 2017 NOTE: "FAIR" INDICATES FEW OR NO CLOUDS BELOW 12,000 FEET WITH NO SIGNIFICANT WEATHER AND/OR OBSTRUCTIONS TO VISIBILITY NCZ015>017-031-032-045>047-102-103-210900- NORTH COAST CITY SKY/WX TMP DP RH WIND PRES REMARKS EDENTON CLEAR 54 52 92 CALM 30.27S ELIZABETH CITY FOG 53 53 100 CALM 30.26F VSB 1/4 KITTY HAWK SUNNY N/A N/A N/A CALM 30.24F MANTEO FOG N/A N/A N/A CALM 30.26S VSB 1/4 $$ NCZ045>047-081-094-103-104-210900- CENTRAL COAST CITY SKY/WX TMP DP RH WIND PRES REMARKS FRISCO CLEAR 62 61 96 N3 30.24F $$ NCZ095-097-098-100-101-210900- SOUTHERN COAST CITY SKY/WX TMP DP RH WIND PRES REMARKS BEAUFORT CLEAR 54 52 93 CALM 30.24F CEDAR ISLAND NOT AVBL JACKSONVILLE CLEAR 55 55 100 CALM 30.24F PINEY ISLAND NOT AVBL WILMINGTON CLEAR 53 52 96 CALM 30.24S $$ NCZ011>013-027>030-043-044-078>080-089-090>093-098-210900- COASTAL PLAIN CITY SKY/WX TMP DP RH WIND PRES REMARKS AHOSKIE CLEAR 49 49 99 CALM 30.26S CLINTON CLEAR 50 50 100 CALM 30.25S ELIZABETHTOWN NOT AVBL GOLDSBORO CLEAR 51 49 94 CALM 30.23S FOG GREENVILLE FOG 50 50 100 CALM 30.25F VSB 1/2 HAVELOCK CLEAR 53 53 100 CALM 30.25F KENANSVILLE CLEAR 48 46 93 CALM 30.25S KINSTON CLEAR 49 47 95 CALM 30.25S NEW BERN CLEAR 53 53 100 CALM 30.26S RICHLANDS CLEAR 49 48 97 CALM 30.25F ROCKY MOUNT PTCLDY 51 51 100 CALM 30.25S FOG WASHINGTON CLEAR 52 51 96 CALM 30.25F WHITEVILLE CLEAR 53 52 96 CALM 30.24S $$ AMZ130-135-150-152-154-156-158-170-250-252-270-ANZ085-086-088-633-658-670-210900- MARINE OBSERVATIONS STATION/POSITION TIME TEMP WIND PRES WAVE SWELL AIR SEA DIR/SP/G HT/PER HT/PER (UTC) (F) (DEG/KT/KT) (MB) (FT/S) (FT/S) CHESAPEAKE LIGHT NOT AVBL 64 E VA BEACH 0750 66 67 320/ 2/ 2 1024.8 2/ 8 2/ 8 DUCK 0800 65 70 280/ 4/ 5 1024.0 2 E DUCK 0800 69 N/A 2/ 8 OREGON INLET 0800 62 70 320/ 3/ 3 1024.0 13E OREGON INLT 0748 71 N/A 2/ 9 2/ 9 HATTERAS CG 0800 68 71 350/ 4/ 5 1023.9 DIAMOND BUOY 0750 74 81 30/ 8/ 10 1023.6 3/ 9 2/ 9 CAPE LOOKOUT 0800 66 360/ 6/ 7 1023.7 BEAUFORT LAB 0800 62 71 360/ 3/ 4 1024.2 30 SE NEW RVR IN 0808 74 90/ 4/ 8 1023.6 30 SE NEW RVR IN NOT AVBL 27 SE WRIGHTSVLE 0808 73 75 80/ 4/ 6 1023.7 5 SE WRIGHTSVLE 0808 70 74 330/ 6/ 8 1023.7 225 S CAPE HAT 0750 76 80 50/ 12/ 16 1021.8 4/ 8 3/ 8 41 SE CHARLESTON 0810 75 80 50/ 8/ 12 1021.9 $$

USA.gov is the U.S. government's official web portal to all federal, state and local government web resources and services.